Weather History for KALO - June, 2013

Change the Weather History Date:

Tuesday, June 18, 2013

  Actual Average Record
Temperature  
Mean Temperature 69 °F 71 °F  
Max Temperature 80 °F 82 °F 98 °F (1953)
Min Temperature 58 °F 60 °F 44 °F (1965)
Degree Days  
Heating Degree Days 0 1  
Month to date heating degree days 38 23  
Since 1 June heating degree days 38 23  
Since 1 July heating degree days 7271 7027  
Cooling Degree Days 4 7  
Month to date cooling degree days 59 85  
Year to date cooling degree days 112 141  
Since 1 June cooling degree days 59 85  
Growing Degree Days 20 (Base 50)    
Moisture  
Dew Point 56 °F    
Average Humidity 65    
Maximum Humidity 90    
Minimum Humidity 40    
Precipitation  
Precipitation 0.00 in 0.16 in 2.17 in (1946)
Month to date precipitation 2.30 2.93  
Year to date precipitation 25.88 15.05  
Snow  
Snow 0.00 in 0.00 in - ()
Month to date snowfall 0.0 0.0  
Since 1 June snowfall 0.0 0.0  
Since 1 July snowfall 50.0 35.3  
Snow Depth 0.00 in    
Sea Level Pressure  
Sea Level Pressure 29.99 in    
Wind  
Wind Speed 7 mph (ENE)    
Max Wind Speed 18 mph    
Max Gust Speed 23 mph    
Visibility 10 miles    
Events      
T = Trace of Precipitation, MM = Missing Value Source: NWS Daily Summary

Daily Weather History Graph

Daily Weather History Graph

Search for Another Location

Airport or City:

Trip Planner

Search our weather history database for the weather conditions in past years. The results will help you decide how hot, cold, wet, or windy it might be!

Date:

Astronomy

Jun. 18, 2013 Rise Set
Actual Time 5:31 AM CDT 8:50 PM CDT
Civil Twilight 4:56 AM CDT 9:25 PM CDT
Nautical Twilight 4:11 AM CDT 10:10 PM CDT
Astronomical Twilight 3:15 AM CDT 11:05 PM CDT
Moon 3:30 PM CDT (6/18) 1:46 AM CDT (6/18)
Length of Visible Light 16h 28m
Length of Day
15h 18m
Waxing Gibbous, 71% of the Moon is Illuminated
Jun 18
Waxing Gibbous
Jun 23
Full
Jun 29
Last Quarter
Jul 8
New
Jul 15
First Quarter

Hourly Weather History & Observations

Time (CDT) Temp. Dew Point Humidity Pressure Visibility Wind Dir Wind Speed Gust Speed Precip Events Conditions
12:54 AM 64.0 °F 55.9 °F 75% 29.92 in 10.0 mi NW 4.6 mph - N/A   Clear
1:54 AM 64.0 °F 55.0 °F 73% 29.93 in 10.0 mi Calm Calm - N/A   Clear
2:54 AM 64.0 °F 55.9 °F 75% 29.92 in 10.0 mi Calm Calm - N/A   Clear
3:54 AM 63.0 °F 57.0 °F 81% 29.93 in 10.0 mi East 3.5 mph - N/A   Clear
4:54 AM 61.0 °F 57.0 °F 87% 29.95 in 10.0 mi NW 4.6 mph - N/A   Clear
5:54 AM 59.0 °F 55.9 °F 90% 29.97 in 10.0 mi NNW 6.9 mph - N/A   Clear
6:54 AM 63.0 °F 57.9 °F 84% 29.99 in 10.0 mi East 4.6 mph - N/A   Clear
7:54 AM 64.9 °F 57.0 °F 75% 30.00 in 10.0 mi East 12.7 mph - N/A   Clear
8:54 AM 68.0 °F 57.9 °F 70% 30.01 in 10.0 mi ENE 12.7 mph - N/A   Clear
9:46 AM 68.0 °F 57.2 °F 68% 30.04 in 10.0 mi NNE 12.7 mph - N/A   Mostly Cloudy
9:54 AM 70.0 °F 57.9 °F 65% 30.04 in 10.0 mi NE 11.5 mph - N/A   Overcast
10:25 AM 71.6 °F 57.2 °F 60% 30.04 in 10.0 mi NE 11.5 mph - N/A   Scattered Clouds
10:54 AM 70.0 °F 55.9 °F 61% 30.04 in 10.0 mi ENE 16.1 mph 23.0 mph N/A   Clear
11:54 AM 70.0 °F 54.0 °F 57% 30.04 in 10.0 mi ESE 12.7 mph - N/A   Mostly Cloudy
12:54 PM 73.9 °F 55.9 °F 53% 30.03 in 10.0 mi East 11.5 mph - N/A   Partly Cloudy
1:54 PM 77.0 °F 55.9 °F 48% 30.01 in 10.0 mi East 10.4 mph - N/A   Mostly Cloudy
2:54 PM 75.9 °F 55.0 °F 48% 30.01 in 10.0 mi NE 8.1 mph - N/A   Mostly Cloudy
3:54 PM 77.0 °F 51.1 °F 40% 30.01 in 10.0 mi North 6.9 mph - N/A   Partly Cloudy
4:54 PM 78.1 °F 53.1 °F 42% 30.00 in 10.0 mi NNE 6.9 mph - N/A   Partly Cloudy
5:54 PM 77.0 °F 54.0 °F 45% 29.99 in 10.0 mi ENE 4.6 mph - N/A   Clear
6:54 PM 75.9 °F 55.0 °F 48% 29.99 in 10.0 mi ENE 9.2 mph - N/A   Clear
7:54 PM 73.9 °F 55.9 °F 53% 29.99 in 10.0 mi ENE 5.8 mph - N/A   Clear
8:54 PM 71.1 °F 54.0 °F 55% 29.99 in 10.0 mi East 4.6 mph - N/A   Clear
9:54 PM 68.0 °F 55.9 °F 65% 30.01 in 10.0 mi East 5.8 mph - N/A   Clear
10:54 PM 64.0 °F 55.9 °F 75% 30.03 in 10.0 mi East 5.8 mph - N/A   Clear
11:54 PM 64.9 °F 55.9 °F 73% 30.03 in 10.0 mi East 5.8 mph - N/A   Clear